Theta_e
314 309 307 305 297 291 287 289 296 295 295 298 305 300 300 302 301 292 320 329 332 334 340 344 347 347 344 343 344 345 345 344 345 345 346 345 343 341 339 337 339 341 339 339 339 339 337 336 336
312 310 306 298 291 285 286 289 294 296 299 304 303 303 303 301 314 317 323 329 332 336 341 343 344 346 343 343 344 344 344 343 341 343 345 345 342 340 338 336 337 340 338 338 340 337 337 335 334
311 306 302 294 286 285 286 289 294 295 299 296 299 304 305 306 313 320 323 330 334 338 341 342 344 345 343 343 344 343 343 342 341 340 345 344 343 339 337 335 336 338 336 338 339 338 336 335 334
305 302 297 290 287 290 290 291 294 295 295 298 303 301 306 316 320 323 329 332 336 338 341 342 345 345 344 344 342 341 340 340 341 341 344 343 341 338 336 335 335 337 336 335 336 337 336 334 334
301 297 291 288 289 291 292 294 295 294 296 299 301 298 304 316 324 327 328 334 335 337 339 342 344 344 344 343 341 340 340 339 340 341 344 342 340 336 335 334 334 335 333 335 337 336 336 335 335
297 295 289 286 287 290 295 295 295 292 294 297 301 305 307 315 324 326 329 331 336 336 339 341 338 340 342 342 341 341 340 339 340 341 342 341 339 335 334 333 333 334 331 333 337 337 335 334 334
295 292 289 287 287 290 294 297 292 293 293 296 303 301 303 312 324 328 328 330 334 336 338 338 339 337 336 338 338 339 338 338 339 340 341 340 337 335 334 333 332 333 331 334 335 334 333 333 333
297 294 288 288 288 290 293 295 294 295 295 297 305 297 298 315 325 328 328 330 331 334 337 337 336 336 335 334 332 333 335 335 336 336 334 332 332 332 332 330 332 333 331 333 333 333 332 331 330
296 291 288 290 290 291 292 293 293 295 296 298 299 301 305 320 326 326 326 327 330 334 336 337 337 335 334 333 330 329 330 331 331 329 327 324 324 323 323 325 331 332 332 331 332 331 329 327 325
294 289 290 292 292 292 293 293 295 297 296 298 299 304 311 321 324 324 325 326 328 330 333 335 336 337 334 335 330 329 328 326 325 324 323 322 320 318 320 321 326 329 329 329 329 327 322 316 312
291 290 292 292 293 295 295 292 294 294 294 296 298 300 312 317 320 323 324 326 328 331 332 334 335 337 336 334 330 328 326 323 321 321 320 318 317 316 317 318 318 318 317 319 318 313 311 310 311
292 292 293 295 295 294 294 294 292 293 296 295 297 302 311 316 320 322 323 322 325 327 331 333 334 334 335 335 333 332 329 322 319 318 318 316 314 313 313 314 314 314 312 310 309 309 309 309 309
290 290 292 294 293 292 295 293 292 293 295 295 296 305 310 317 320 322 324 321 322 326 331 333 333 333 334 334 335 333 331 325 320 317 317 315 313 312 311 312 312 311 308 308 306 307 307 307 307
293 291 291 292 292 292 291 288 293 292 294 294 296 301 307 312 317 314 319 320 320 326 328 332 332 333 333 333 333 333 330 327 321 317 317 315 314 312 311 310 310 309 308 307 306 306 305 305 305
293 289 289 290 291 291 292 288 291 291 291 292 293 295 303 308 310 315 320 321 322 324 327 328 332 333 332 332 332 333 333 329 325 319 317 315 314 312 310 310 312 312 311 309 305 304 302 303 305
289 287 284 286 291 291 289 284 288 292 289 292 291 291 293 298 307 310 313 316 319 319 324 327 331 331 332 332 332 332 332 331 327 321 318 316 314 313 310 312 313 313 312 310 307 304 303 303 303
285 280 282 286 290 290 288 285 289 291 291 292 291 291 291 293 294 298 309 312 314 318 319 325 328 329 330 332 332 331 331 330 328 324 320 318 317 315 314 313 312 312 311 308 304 301 301 300 298
281 281 283 282 286 289 287 289 292 292 291 292 291 291 291 292 294 296 297 307 312 313 317 323 327 328 329 330 331 331 331 331 329 326 321 320 318 316 315 313 312 312 310 307 303 301 297 297 296
285 283 281 283 288 288 287 288 290 292 291 291 292 292 292 292 296 294 296 296 305 309 313 317 322 326 328 329 329 328 327 329 330 330 326 321 321 317 316 314 312 312 310 307 304 298 296 292 293
286 283 282 285 288 288 286 287 289 290 291 292 292 292 291 291 292 293 293 293 295 302 310 314 318 324 327 329 329 329 329 329 329 330 329 324 322 320 317 316 313 312 310 307 301 298 295 293 293
283 282 282 284 284 285 283 283 284 288 289 290 291 291 291 291 292 293 292 292 291 293 299 309 315 320 325 328 327 318 322 323 327 328 328 328 325 323 320 318 316 314 312 307 303 302 300 295 292
282 287 286 285 283 279 283 277 282 285 287 288 290 288 289 289 290 290 291 291 292 292 293 300 309 315 321 325 325 324 326 325 327 328 329 328 327 325 322 320 318 316 314 309 305 304 303 302 293
286 288 286 283 281 280 279 279 282 281 285 287 288 289 291 291 288 289 294 295 295 294 292 293 301 309 315 322 325 324 324 325 322 327 324 325 325 326 324 322 319 317 315 313 309 305 303 303 301
289 286 284 281 280 276 279 280 278 281 284 287 287 288 289 290 292 292 293 294 294 296 296 298 299 305 312 319 323 322 322 318 311 311 323 324 322 323 323 322 321 319 317 315 310 306 304 304 305
285 284 277 275 274 275 277 278 280 285 285 284 287 289 289 290 291 292 293 294 294 294 296 298 301 303 308 312 315 316 318 313 313 310 319 318 317 311 317 316 319 318 317 316 313 308 306 304 304
284 284 278 271 272 275 279 277 282 285 287 288 287 289 291 292 292 293 292 293 293 294 294 296 297 301 304 307 309 309 310 310 309 309 309 315 316 317 316 313 315 317 316 315 312 309 306 304 302
284 281 283 278 267 272 277 280 285 285 289 290 291 291 291 291 293 293 293 293 293 294 294 295 296 297 299 302 304 305 306 307 307 306 305 305 305 309 312 312 312 310 310 310 309 307 304 303 302
285 287 280 278 269 267 275 276 279 284 287 289 290 291 291 292 293 293 293 293 293 294 294 295 296 296 296 297 298 300 300 301 302 302 302 301 301 300 300 301 304 307 308 307 306 305 303 303 302
283 282 281 282 279 273 270 276 283 284 289 289 290 290 291 292 292 292 292 292 292 293 293 294 295 295 296 296 296 297 297 298 298 298 299 298 298 298 297 297 297 297 298 302 303 304 304 302 302
284 284 284 279 276 277 277 280 286 286 290 290 289 291 291 291 291 290 291 292 292 293 293 293 293 293 294 295 295 296 296 296 296 297 297 297 297 295 295 294 295 297 299 300 301 301 302 301 300
Wind_Speed
5 5 3 6 6 6 0 2 2 3 1 2 5 5 6 2 4 4 0 5 12 10 7 6 12 12 12 11 11 11 10 13 12 12 14 15 17 15 16 14 12 14 16 15 16 17 17 17 18
3 3 6 3 6 3 4 3 5 5 4 7 6 2 2 1 2 4 7 5 13 10 7 6 12 12 13 12 12 10 11 11 11 11 12 15 16 15 14 14 12 14 16 16 17 17 17 17 18
3 4 5 5 4 4 4 4 5 3 5 2 4 3 3 3 1 8 3 11 11 8 7 9 12 13 13 13 12 12 11 10 11 10 11 14 16 14 14 13 12 13 14 14 16 16 17 17 17
3 5 5 6 3 2 3 3 4 5 2 2 4 4 1 1 7 6 10 13 11 8 7 11 13 13 13 12 13 13 12 12 11 11 10 15 16 14 13 13 12 14 13 12 14 15 16 16 16
5 3 4 4 2 2 3 2 6 2 2 2 3 3 2 1 2 8 12 13 13 8 7 9 13 13 14 13 14 13 13 12 11 11 11 14 15 13 13 12 12 13 13 11 13 16 16 16 15
4 4 5 2 2 3 0 3 5 2 1 3 5 7 3 2 5 7 9 9 9 10 8 7 10 10 12 12 12 12 11 11 11 11 12 14 13 11 12 12 12 13 11 11 13 17 17 15 13
7 5 5 5 3 1 4 6 4 5 2 3 7 6 2 2 6 7 8 7 7 8 9 6 7 8 9 10 10 10 10 9 9 8 9 11 10 10 12 11 11 13 11 12 14 15 15 15 14
6 6 4 2 5 4 4 5 1 6 6 2 3 3 4 5 9 8 7 7 7 7 8 8 6 6 6 6 9 9 10 10 9 9 8 9 10 10 10 9 10 13 12 14 14 14 14 14 14
3 6 3 7 7 4 5 4 1 1 4 2 4 5 2 6 10 8 6 5 6 6 10 11 10 6 6 6 6 7 8 8 7 7 9 7 4 6 7 6 8 13 11 13 13 13 13 13 13
6 5 8 5 5 5 6 4 6 3 2 3 2 1 5 7 11 13 11 11 13 13 11 10 11 9 6 5 5 5 5 4 4 5 6 4 5 5 5 6 8 11 9 12 12 11 11 8 4
2 5 5 3 2 5 7 3 4 6 3 8 10 6 8 6 8 12 9 10 15 14 11 12 12 10 9 7 4 3 3 3 3 5 5 5 4 3 3 3 3 4 6 3 5 5 4 5 4
4 1 4 4 1 4 6 7 3 6 6 2 8 4 7 9 12 14 12 9 10 9 14 14 14 12 12 7 6 6 5 3 3 4 6 4 3 4 4 3 4 4 3 5 4 3 4 5 5
2 3 1 2 2 2 4 1 4 8 7 5 4 5 10 12 12 9 8 6 6 10 12 15 13 13 10 11 7 6 6 5 5 5 5 4 4 4 4 3 3 3 3 3 4 4 4 4 4
4 4 2 1 1 1 1 1 0 4 3 5 5 8 9 10 13 4 7 8 9 10 12 13 14 14 13 10 10 8 6 7 6 5 6 6 5 5 4 4 3 3 3 3 4 4 4 4 3
4 4 2 2 2 1 2 4 10 5 4 3 8 7 7 11 5 12 12 11 10 9 8 12 14 14 14 15 11 8 8 7 7 7 8 8 7 7 6 5 4 5 5 5 4 3 3 4 3
5 5 2 2 4 1 3 9 5 4 3 8 6 6 8 9 12 10 8 8 7 7 10 11 11 14 16 14 12 10 8 8 8 7 7 9 8 8 7 6 6 5 4 4 3 3 2 2 3
6 3 3 6 4 2 3 7 3 2 4 3 5 6 8 9 10 11 12 11 10 10 9 11 13 14 15 13 11 12 12 11 9 8 8 12 11 10 9 7 6 7 5 4 5 2 3 2 2
6 4 3 4 1 1 2 10 10 6 4 8 9 9 9 10 15 10 11 11 12 10 10 12 11 13 13 10 9 9 8 8 7 8 8 11 10 13 10 7 8 8 6 5 6 5 2 3 4
6 5 3 3 2 2 5 8 12 10 6 10 10 11 11 12 11 6 8 8 9 8 10 12 12 14 10 9 10 10 11 8 8 8 11 11 11 12 12 8 9 10 9 9 8 4 4 2 4
4 4 3 2 2 3 5 12 10 9 9 8 8 10 11 8 8 10 8 8 10 12 13 13 15 14 13 10 10 9 10 9 9 8 9 13 13 13 13 12 10 12 9 9 10 8 4 2 7
2 6 5 4 2 2 5 9 6 6 5 6 9 9 9 11 11 9 7 7 7 10 12 14 15 15 14 15 7 3 3 2 5 8 8 10 14 14 14 14 11 11 11 11 14 13 13 9 6
3 7 5 4 4 4 2 7 6 5 10 7 11 8 10 10 8 6 7 5 5 7 6 8 9 11 12 13 11 14 13 13 12 10 8 8 13 13 15 14 14 14 11 12 13 12 13 9 10
6 5 5 3 4 3 3 2 9 3 7 9 8 7 8 7 4 4 4 5 4 5 2 5 6 7 8 11 15 12 12 10 4 8 8 8 8 12 12 14 14 13 11 12 12 12 14 12 9
10 7 7 5 3 2 5 6 7 5 6 0 2 5 7 9 8 6 4 6 6 6 5 2 4 6 7 9 12 13 13 8 5 4 9 7 6 7 10 11 12 13 12 13 12 14 14 14 13
4 7 2 4 3 7 2 0 9 9 5 3 6 9 9 7 7 7 8 8 8 8 7 5 2 2 4 6 6 7 8 8 9 7 8 7 5 3 8 8 10 9 12 12 11 12 13 13 13
8 8 8 9 5 4 2 8 8 5 3 4 2 3 6 8 8 8 7 6 7 8 8 7 6 3 0 3 4 3 3 3 4 5 4 5 6 8 6 7 7 9 9 10 9 9 10 10 10
6 6 5 8 3 4 5 7 11 1 6 5 6 6 6 5 5 7 8 8 8 8 8 8 8 6 4 1 1 3 3 5 5 5 3 3 3 5 7 6 7 6 5 6 7 7 9 9 11
4 8 4 3 3 4 5 5 7 3 6 4 5 6 6 5 7 7 7 8 7 7 7 7 7 7 6 6 5 2 2 3 3 3 6 6 6 5 6 6 6 7 6 5 5 4 5 8 7
3 3 4 5 6 7 2 8 8 2 9 10 5 3 5 7 6 7 7 7 7 6 8 8 8 8 8 6 4 4 4 4 3 4 5 6 5 6 7 7 7 7 7 7 8 9 8 10 10
1 7 8 6 5 3 3 11 3 7 7 5 3 5 5 5 6 7 7 7 8 9 10 10 10 9 7 6 5 5 5 4 4 5 6 5 6 5 7 6 6 6 8 8 10 10 9 10 10
Wind_Direction
360 22 64 43 56 66 298 242 113 127 187 168 114 132 181 127 155 204 84 174 135 146 143 158 136 130 127 121 114 105 119 109 99 98 111 116 105 94 93 93 96 96 90 91 95 92 83 82 80
358 51 44 68 83 72 274 259 192 187 186 131 96 64 62 114 91 95 120 180 143 147 144 133 127 133 134 131 121 116 109 112 111 103 107 115 104 90 92 94 97 97 88 86 92 88 85 83 83
89 42 80 92 110 161 205 208 185 119 167 90 96 47 146 163 64 163 185 145 138 142 139 139 135 143 141 138 123 117 114 115 117 119 111 117 106 97 97 97 100 96 92 90 94 93 89 86 90
70 23 37 84 207 222 203 177 182 138 187 166 124 82 317 219 158 192 143 141 137 140 139 147 145 147 145 137 130 128 130 132 129 119 119 114 109 106 103 105 107 100 93 104 102 96 95 96 97
41 68 61 89 271 288 251 168 148 155 160 130 135 190 322 37 76 130 141 146 146 142 142 149 150 152 148 146 141 142 138 137 135 122 120 112 108 114 111 112 113 107 102 103 112 116 107 102 99
46 97 67 170 255 312 271 155 142 158 260 160 84 131 215 322 123 152 144 145 145 143 145 147 150 151 151 151 148 146 141 139 137 132 125 126 123 124 118 117 122 113 110 115 94 95 94 94 93
114 84 169 154 170 6 187 151 159 175 181 235 156 130 247 229 169 147 137 129 132 140 145 145 149 157 153 149 148 143 138 136 136 136 128 125 120 131 126 124 125 121 116 121 105 103 102 97 91
102 90 124 174 176 220 183 177 231 159 219 58 156 185 211 211 149 124 124 129 136 146 155 155 150 153 153 151 147 144 141 139 139 130 116 110 114 113 119 123 136 127 129 120 114 110 105 98 90
114 69 167 185 149 225 137 178 175 267 123 251 194 152 279 131 125 125 132 127 146 165 172 170 165 155 152 147 153 142 139 136 124 117 113 104 112 113 110 128 133 124 132 129 121 110 103 95 87
86 112 207 196 183 173 181 176 177 147 149 244 278 174 95 132 152 162 171 178 184 185 185 181 177 170 151 151 149 149 143 142 138 133 131 121 123 125 120 119 110 119 125 136 128 116 105 90 81
136 169 184 211 172 152 163 158 179 127 245 222 206 179 147 154 172 177 188 188 189 186 186 188 185 175 169 160 156 141 135 140 147 147 141 132 120 114 113 111 101 100 83 85 100 101 87 98 98
114 75 166 150 196 131 156 130 201 189 224 329 240 167 156 166 184 191 198 193 177 179 188 190 190 186 185 170 173 162 163 156 159 164 153 141 136 139 138 135 139 122 124 122 122 114 112 103 104
108 187 162 72 110 80 114 158 247 248 238 283 65 162 182 188 198 206 208 179 174 187 188 195 191 192 188 187 178 171 175 171 169 166 166 151 151 153 144 150 143 134 125 134 134 128 128 122 115
160 132 92 73 27 18 149 324 72 269 325 202 184 210 209 199 204 176 187 203 194 195 190 190 195 196 193 191 188 188 176 174 170 172 176 167 158 154 153 155 161 144 155 148 150 158 146 133 131
97 101 21 198 182 261 153 274 238 247 323 241 224 229 226 226 211 216 213 209 199 204 184 189 191 195 197 199 197 196 191 182 186 181 174 172 165 165 161 163 177 181 166 159 147 142 132 133 129
73 50 113 294 146 171 131 264 276 340 203 250 252 250 243 245 229 230 221 222 202 188 191 187 189 194 199 201 200 203 197 191 192 184 175 175 172 167 163 177 186 170 164 156 136 122 108 85 125
13 180 205 314 193 105 154 263 274 53 36 276 267 260 256 260 257 236 226 211 206 201 189 191 190 193 196 200 202 205 204 202 196 184 184 182 180 177 180 185 177 160 156 147 145 124 127 139 110
185 171 218 229 175 149 218 263 280 270 303 278 283 276 268 260 251 235 226 218 213 201 194 202 196 200 195 194 196 206 207 205 193 186 187 184 188 180 184 182 171 167 170 167 167 157 123 150 146
132 122 182 240 55 227 236 267 273 286 284 265 260 261 258 252 265 245 233 226 209 205 195 197 192 199 186 194 199 206 214 206 205 196 188 186 190 189 191 189 178 175 185 186 168 137 157 158 155
128 123 211 302 45 154 351 284 267 270 255 239 254 264 257 276 284 284 252 233 209 211 208 208 204 196 196 197 205 206 210 214 212 205 195 191 195 193 188 191 195 191 183 174 173 166 146 145 183
169 159 200 192 31 52 350 292 309 294 276 292 264 251 272 257 274 280 292 265 238 222 205 208 203 201 198 202 185 100 92 79 192 206 202 201 196 197 203 196 190 193 194 190 186 187 184 182 191
181 201 171 147 98 229 28 283 300 295 299 285 284 315 286 274 264 294 304 303 277 255 216 208 206 206 205 193 190 199 209 212 216 216 207 201 192 203 198 199 193 196 201 197 199 193 197 167 196
208 122 134 86 99 55 329 26 271 338 285 275 316 347 346 352 285 338 12 7 33 9 277 221 206 204 198 195 201 201 211 219 210 209 191 194 197 201 210 201 201 203 194 210 201 197 202 205 188
151 83 52 54 85 317 227 177 277 209 220 211 330 334 345 348 350 360 7 23 16 22 37 64 197 212 196 196 203 200 208 197 162 182 205 204 200 208 205 206 209 202 208 205 201 201 206 211 218
89 93 16 360 9 227 327 138 244 256 245 252 320 318 338 349 357 353 12 12 12 19 20 19 58 193 200 198 196 193 202 181 192 176 203 196 197 189 218 202 205 207 210 207 201 200 206 214 212
192 162 156 190 196 247 69 234 251 224 285 262 266 344 355 8 9 16 11 15 15 11 19 24 28 32 48 170 197 198 188 179 192 190 188 205 209 220 213 206 216 213 209 208 196 202 205 201 212
199 214 155 103 22 60 226 288 300 110 53 76 59 45 12 2 29 22 14 16 15 11 14 13 9 17 34 13 141 212 201 203 211 210 202 209 221 229 228 210 213 214 212 197 185 197 203 203 208
156 162 83 2 133 253 269 267 229 214 154 113 88 59 15 23 40 34 18 7 16 11 7 22 16 21 17 26 25 351 294 268 259 209 222 220 224 207 224 228 223 229 219 199 194 198 195 202 209
139 188 61 127 153 176 236 255 223 160 165 147 140 25 18 9 33 47 37 21 24 23 23 23 24 24 18 14 15 8 351 342 307 257 259 243 230 214 215 223 222 219 217 219 228 233 224 211 219
324 202 158 146 219 255 171 252 311 189 141 126 105 8 356 17 35 46 43 36 25 38 37 32 22 18 358 355 4 7 353 347 329 311 292 270 256 243 231 223 220 217 220 218 222 227 223 224 225